Date,TemperatureHighF,TemperatureAvgF,TemperatureLowF,DewpointHighF,DewpointAvgF,DewpointLowF,HumidityHigh,HumidityAvg,HumidityLow,PressureMaxIn,PressureMinIn,WindSpeedMaxMPH,WindSpeedAvgMPH,GustSpeedMaxMPH,PrecipitationSumIn
2013-7-1,75,70,66,67,64,62,91,84,73,29.48,29.37,8,1,8,0.00
2013-7-2,72,67,64,65,63,61,93,86,75,29.74,29.44,7,2,7,0.00
2013-7-3,70,65,62,64,61,60,93,89,79,29.64,29.51,7,1,8,0.00
2013-7-4,72,66,62,64,62,60,93,87,75,29.54,29.45,7,1,7,0.00
2013-7-5,71,66,64,64,62,61,88,85,77,29.56,29.47,7,1,7,0.00
2013-7-6,70,65,63,64,61,59,90,87,80,29.55,29.45,5,1,8,0.00
2013-7-7,69,65,62,62,60,58,90,85,78,29.56,29.47,8,2,8,0.00
2013-7-8,69,64,59,63,59,55,92,85,77,29.64,29.55,7,1,8,0.00
2013-7-9,72,65,59,64,60,57,93,84,71,29.70,29.61,7,1,7,0.00
2013-7-10,72,65,61,64,60,58,90,86,77,29.67,29.58,6,1,6,0.00
2013-7-11,73,67,63,66,63,60,90,86,77,29.67,29.58,6,1,6,0.05
2013-7-12,68,64,61,63,60,58,93,89,82,29.64,29.56,6,1,7,0.00
2013-7-13,68,64,60,63,60,57,93,87,80,29.66,29.55,6,2,6,0.00
2013-7-14,70,64,58,62,59,55,90,83,75,29.63,29.50,8,1,8,0.00
2013-7-15,71,64,59,62,58,54,88,80,70,29.57,29.50,8,1,8,0.00
2013-7-16,70,63,54,61,57,51,90,81,66,29.67,29.55,7,1,7,0.00
2013-7-17,70,60,56,62,56,52,88,84,69,29.72,29.64,6,1,6,0.00
2013-7-18,69,63,56,61,57,52,92,83,73,29.68,29.55,6,1,6,0.00
2013-7-19,68,62,56,60,57,53,89,83,71,29.60,29.51,5,1,5,0.00
2013-7-20,73,64,58,64,59,54,90,83,72,29.58,29.46,7,1,7,0.00
2013-7-21,70,65,62,64,61,58,91,88,79,29.62,29.48,5,1,5,0.00
2013-7-22,72,66,62,64,62,60,93,86,73,29.68,29.59,8,1,8,0.02
2013-7-23,70,65,62,62,60,59,92,85,75,29.72,29.62,7,2,8,0.00
2013-7-24,65,62,61,60,58,58,90,87,82,29.63,29.59,7,2,7,0.00
2013-7-25,68,64,61,62,59,58,90,83,79,29.68,29.62,7,2,7,0.00
2013-7-26,63,63,63,59,59,59,87,87,87,29.67,29.67,1,1,1,0.00
2013-7-30,68,63,60,60,58,55,90,83,74,29.82,29.75,7,2,7,0.06
2013-7-31,66,61,56,59,56,52,89,84,76,29.81,29.74,8,1,8,0.00